www.pogodaiklimat.ru

Погода и климат >> Архив погоды >> Россия >> Якутия >> Анабар


ПОГОДА в Анабаре

  • Прогноз погоды в Анабаре
  • Монитор погоды в Анабаре

АРХИВ ПОГОДЫ в Анабаре

Время (UTC), дата Ветер
(напр.,м/с)
 
Видим.   Явления Облачность Т
(С)
Тd
(С)
f
(%)
Тe
(С)
Тes
(С)
Комфортность P
(гПа)
Po
(гПа)
Тmin
(С)
Tmax
(С)
R
(мм)
R24
(мм)
S
(см)
15 13.03 З 7 20 км позёмок 3/0
[Ci fib]
-31.3 -32.4 90 -46 -46 опасность
обморожения
1014.1 1012.2
18 13.03 З 7 20 км позёмок 3/0
[Ci fib]
-32.7 -33.9 89 -48 -48 опасность
обморожения
1013.9 1012.0
21 13.03 З 1 20 км {метель} 1/0
[Ci fib]
-33.7 -34.7 91 -38 -38 опасность
обморожения
1014.3 1012.4
00 14.03 З 1 20 км {метель} ясно -34.8 -35.9 90 -39 -39 опасность
обморожения
1015.1 1013.2 -34.8 10
03 14.03 З 1 20 км ясно -33.3 -34.4 90 -38 -36 опасность
обморожения
1014.6 1012.7
06 14.03 З 1 20 км ясно -29.0 -30.1 90 -33 -32 опасность
обморожения
1014.8 1012.9
09 14.03 В 3 20 км ясно -32.4 -33.6 89 -43 -42 опасность
обморожения
1014.2 1012.3
12 14.03 В 4 20 км ясно -34.6 -35.6 91 -47 -47 опасность
обморожения
1014.4 1012.5 -29.0
15 14.03 В 4 20 км ясно -35.2 -36.2 90 -48 -48 опасность
обморожения
1013.3 1011.4
18 14.03 В 5 20 км ясно -35.6 -36.6 90 -50 -50 опасность
обморожения
1012.4 1010.5
21 14.03 В 4 20 км ясно -35.0 -36.2 89 -47 -47 опасность
обморожения
1011.9 1010.0
00 15.03 В 5 20 км 10/0
[Ci fib]
-34.3 -35.3 91 -48 -48 опасность
обморожения
1011.6 1009.7 -35.6 10
03 15.03 В 6 20 км позёмок 3/0
[Ci fib]
-31.8 -32.9 90 -46 -45 опасность
обморожения
1011.1 1009.2
06 15.03 ЮВ 7 20 км позёмок 6/0
[Ci fib]
-29.6 -30.7 90 -44 -44 опасность
обморожения
1010.2 1008.3
09 15.03 В 8
{10}
20 км позёмок 10/0
[Ci fib]
-29.3 -30.5 89 -44 -44 опасность
обморожения
1009.6 1007.7
12 15.03 В 9-10
{11}
4000 м метель 10/0
[Ci fib]
-27.0 -27.6 95 -42 -42 опасность
обморожения
1009.1 1007.3 -27.0
15 15.03 ЮВ 7
{10}
10 км слаб. снег {метель} 10/0
[Ac As]
-24.7 -25.3 95 -38 -38 опасность
обморожения
1008.8 1007.0
18 15.03 В 7 20 км позёмок {снег} 4/0
[Ci fib]
-23.9 -24.5 95 -37 -37 опасность
обморожения
1008.8 1007.0
21 15.03 В 6 20 км позёмок 3/0
[Ci fib]
-25.7 -26.3 95 -38 -38 опасность
обморожения
1009.7 1007.9
00 16.03 В 4 20 км {метель} 10/0
[Ci fib]
-27.2 -27.8 95 -38 -38 опасность
обморожения
1011.1 1009.2 -27.2 0.0 10
03 16.03 ЮВ 2 20 км 8/0
[Ci fib]
-25.6 -26.3 94 -32 -31 опасность
обморожения
1012.7 1010.9
06 16.03 В 1 20 км 10/0
[Ci fib]
-25.8 -26.4 95 -29 -28 1014.0 1012.2
09 16.03 Ю 1 20 км 10/0
[Ci fib]
-27.2 -27.8 95 -31 -31 опасность
обморожения
1015.5 1013.6
12 16.03 Ю 1 20 км 10/0
[Ci fib]
-29.0 -30.1 90 -33 -33 опасность
обморожения
1017.5 1015.6 -25.6
15 16.03 Ю 1 20 км 10/0
[Ci fib]
-27.9 -28.5 95 -32 -32 опасность
обморожения
1018.7 1016.8
18 16.03 Ю 2 20 км 10/0
[Ci fib]
-29.2 -29.8 95 -37 -37 опасность
обморожения
1019.7 1017.8
21 16.03 штиль 0 20 км 4/0
[Ci fib]
-31.5 -32.7 89 -32 -32 опасность
обморожения
1020.8 1018.9
00 17.03 Ю 1 20 км 10/0
[Ci fib]
-31.2 -32.4 89 -35 -35 опасность
обморожения
1022.1 1020.2 -32.9 10
03 17.03 ЮЗ 1 20 км ясно -32.0 -33.1 90 -36 -35 опасность
обморожения
1022.6 1020.7
06 17.03 штиль 0 20 км ясно -30.6 -31.8 89 -31 -29 опасность
обморожения
1023.2 1021.3
09 17.03 ЮЗ 3 20 км 10/0
[Ci fib]
-31.0 -32.2 89 -41 -41 опасность
обморожения
1024.2 1022.3
12 17.03 ЮЗ 3 20 км 3/0
[Ci fib]
-34.0 -35.0 91 -44 -44 опасность
обморожения
1024.3 1022.4 -30.6
15 17.03 ЮЗ 3 20 км ясно -35.6 -36.6 90 -46 -46 опасность
обморожения
1024.0 1022.1
18 17.03 ЮЗ 3 20 км 4/0
[Ci fib]
-35.4 -36.6 89 -46 -46 опасность
обморожения
1023.6 1021.7
21 17.03 З 2 20 км 4/0
[Ci fib]
-36.0 -37.2 89 -44 -44 опасность
обморожения
1023.4 1021.5
00 18.03 З 3 20 км 3/0
[Ci fib]
-34.4 -35.6 89 -45 -45 опасность
обморожения
1023.1 1021.2 -36.1 10
03 18.03 З 1 20 км 10/0
[Ci fib]
-29.8 -30.9 90 -34 -32 опасность
обморожения
1022.8 1020.9
06 18.03 ЮЗ 1 20 км 6/0
[Ci fib]
-26.2 -27.4 90 -30 -28 1022.9 1021.0
09 18.03 Ю 1 20 км 3/0
[Ci fib]
-28.6 -29.8 89 -33 -32 опасность
обморожения
1023.0 1021.1
12 18.03 Ю 2 20 км ясно -31.4 -32.4 91 -39 -39 опасность
обморожения
1022.9 1021.0 -26.2
15 18.03 Ю 2 20 км ясно -32.7 -33.9 89 -41 -41 опасность
обморожения
1022.5 1020.6
18 18.03 Ю 2 20 км ясно -32.2 -33.4 89 -40 -40 опасность
обморожения
1022.0 1020.1
21 18.03 Ю 2 20 км ясно -33.5 -34.7 89 -42 -42 опасность
обморожения
1021.5 1019.6
00 19.03 Ю 3 20 км ясно -33.2 -34.4 89 -43 -43 опасность
обморожения
1020.8 1018.9 -33.6 10
03 19.03 Ю 3 20 км ясно -30.0 -31.1 90 -40 -38 опасность
обморожения
1020.2 1018.3
06 19.03 Ю 3 20 км ясно -27.2 -28.4 89 -36 -35 опасность
обморожения
1019.2 1017.3
09 19.03 Ю 3 20 км ясно -27.5 -28.7 89 -37 -36 опасность
обморожения
1018.2 1016.3
12 19.03 Ю 1 20 км 6/0
[Ac trans]
-28.7 -29.9 89 -33 -33 опасность
обморожения
1017.6 1015.7 -27.2
15 19.03 Ю 2 20 км 9/0
[Ac trans]
-25.2 -25.8 95 -32 -32 опасность
обморожения
1016.1 1014.2
18 19.03 ЮЗ 7 10 км слаб. снег {метель} 10/0
[Ac As]
-19.1 -19.7 95 -31 -31 опасность
обморожения
1014.5 1012.7
21 19.03 ЮЗ 6 10 км слаб. снег {метель} 10/0
[Ac As]
-18.1 -18.7 95 -29 -29 1013.7 1011.9
00 20.03 З 4 10 км слаб. снег {метель} 10/0
[Ac As]
-18.5 -19.1 95 -27 -27 1013.3 1011.5 -28.7 2 10
03 20.03 З 2 20 км {снег} 10/0
[Ac trans Ci fib]
-18.8 -19.4 95 -24 -23 1013.6 1011.8
06 20.03 З 3 20 км {снег} 4/0
[Ci fib]
-20.5 -21.1 95 -28 -27 1014.3 1012.5
09 20.03 З 2 20 км ясно -22.1 -22.8 94 -28 -28 1015.3 1013.5
12 20.03 З 2 20 км 3/0
[Ci fib]
-26.8 -27.5 94 -34 -34 опасность
обморожения
1015.7 1013.8 -18.5 0.0

 

Местоположение метеостанции Анабар (Якутия, Россия): широта 73.22 долгота 113.50 высота над уровнем моря 13 м.

В архиве по умолчанию представлена погода в Анабаре за последнюю неделю. Архивные данные за месяц целиком и за предыдущие месяцы, начиная с января 2011 года, Вы можете получить, выбрав интересующий диапазон дат из раскрывающегося списка и нажав кнопку "Ввод!".


*Определитесь, кто Вы:
робот инопланетянин человек

Внимание! Время в таблицах - всемирное. Для получения местного времени необходимо прибавить поправку, которая равна 9 ч.

Смотрите также архив погоды в соседних городах и на ближайших метеорологических станциях:

Погода в Саскылахе (Якутия, Россия) (140 км)
Погода на Острове Преображения (Якутия, Россия) (162 км)
Погода на Усть-Оленеке (Якутия, Россия) (205 км)
Погода в Джалинде (Якутия, Россия) (344 км)
Погода в Тюмяти (Якутия, Россия) (363 км)
Погода в Хатанге (Красноярский край, Россия) (391 км)
Погода на Столб Острове (Якутия, Россия) (430 км)
Погода в Оленеке (Якутия, Россия) (526 км)
Погода на Мысе Быков (Якутия, Россия) (534 км)
Погода в Сухане (Якутия, Россия) (540 км)

Пояснения к столбцам:

Ветер - указаны скорость ветра в м/с - средняя за 10 мин, порывы в срок и между сроками (в фигурных скобках) и направление, откуда дует ветер: С - северный, СВ - северо-восточный, В - восточный, ЮВ - юго-восточный, Ю - южный, ЮЗ - юго-западный, З - западный, СЗ - северо-западный.
Видимость - горизонтальная дальность видимости в метрах или километрах. При видимости от 1 до 10 км при отсутствии осадков обычно наблюдается дымка, при ухудшении видимости до 1 км и менее - туман. В сухую погоду видимость может ухудшаться дымом, пылью или мглою.
Явления - указаны атмосферные явления, наблюдавшиеся в срок или в последний час перед сроком; фигурными скобками обозначены явления, наблюдавшиеся между сроками (за 1-3 часа до срока); квадратными скобками обозначены град или гололедные отложения с указанием их диаметра в мм.
Облачность - указаны через наклонную черту общая и нижняя облачность в баллах и высота нижней границы облаков в метрах; квадратными скобками обозначены формы облаков: Ci - перистые, Cs - перисто-слоистые, Cc - перисто-кучевые, Ac - высококучевые, As - высокослоистые, Sc - слоисто-кучевые, Ns - слоисто-дождевые, Cu - кучевые, Cb - кучево-дождевые. Подробнее классификацию облаков см. в Атласе облаков (PDF).
T - Температура воздуха - температура, измеренная на высоте 2 м над землей.
Td - Температура точки росы - температура, при понижении до которой содержащийся в воздухе водяной пар достигнет насыщения.
f - Относительная влажность воздуха - влажноcть воздуха, измеренная на высоте 2 м над землей.
Te - Эффективная температура - температура, которую ощущает одетый по сезону человек в тени. Характеристика душности погоды. При расчете учитывается влияние влажности воздуха и скорости ветра на теплоощущения человека.
Tes - Эффективная температура на солнце - температура, которую ощущает человек, с поправкой на солнечный нагрев. Характеристика знойности погоды. Зависит от высоты солнца над горизонтом, облачности и скорости ветра. Ночью, в пасмурную погоду, а также при ветре 12 м/с и более поправка равна нулю.
P - Атмосферное давление - приведенное к уровню моря атмосферное давление.
Po - Атмосферное давление - измеренное на уровне метеостанции атмосферное давление.
Tmin - Минимальная температура - минимум температуры воздуха на высоте 2 м над землей.
Tmax - Максимальная температура - максимум температуры воздуха на высоте 2 м над землей.
R - Количество осадков - Количество выпавших осадков за период времени, мм. При наведении курсора мыши на число - период времени, за который выпало указанное количество осадков.
R24 - Количество осадков - Количество выпавших осадков за 24 часа, мм.
S - Снежный покров - Высота снежного покрова, см. При наведении курсора мыши на число - состояние снежного покрова и степень покрытия местности в баллах.